Location: Espelette
(43.3402°N, 1.4474°W)
Time: 19:33:42
(UTC+00:00)

SeaSat 1 - Pass Details

Date: 19 May 2025
Orbit: 738 x 740 km, 108.0° (Epoch: 23 June)

Event Time Altitude Azimuth Distance (km) Brightness Sun altitude
Exits shadow 21:36:48 27° 104° (ESE) 1,412 3.4 -18.4°
Maximum altitude 21:38:53 40° 55° (NE) 1,081 3.2 -18.6°
Drops below altitude 10° 21:43:27 10° 347° (NNW) 2,257 6.0 -19.1°
Sets 21:45:49 0° 340° (NNW) 3,184 7.2 -19.4°
